Weather History for Wrangell, AK

Change the Weather History Date:

Thursday, March 14, 2013

  Actual Average Record
Temperature  
Mean Temperature 32 °F -  
Max Temperature 35 °F 42 °F 57 °F (1979)
Min Temperature 30 °F 30 °F 8 °F (2006)
Degree Days  
Heating Degree Days 32    
Moisture  
Dew Point 21 °F    
Average Humidity 60    
Maximum Humidity 75    
Minimum Humidity 56    
Precipitation  
Precipitation 0.00 in - - ()
Sea Level Pressure  
Sea Level Pressure 29.83 in    
Wind  
Wind Speed 9 mph (East)    
Max Wind Speed 17 mph    
Max Gust Speed 23 mph    
Visibility 10 miles    
Events      
Averages and records for this station are not official NWS values.
T = Trace of Precipitation, MM = Missing Value Source: NWS Daily Summary

Daily Weather History Graph

Daily Weather History Graph

Search for Another Location

Airport:

Trip Planner

Search our weather history database for the weather conditions in past years. The results will help you decide how hot, cold, wet, or windy it might be!

Date:

Astronomy

Mar. 14, 2013 Rise Set
Actual Time 7:06 AM AKDT 6:51 PM AKDT
Civil Twilight 6:29 AM AKDT 7:29 PM AKDT
Nautical Twilight 5:45 AM AKDT 8:13 PM AKDT
Astronomical Twilight 4:59 AM AKDT 8:59 PM AKDT
Moon 7:44 AM AKDT (3/14) 11:02 PM AKDT (3/14)
Length of Visible Light 13h 00m
Length of Day
11h 45m
Waxing Crescent, 10% of the Moon is Illuminated
Mar 14
Waxing Crescent
Mar 19
First Quarter
Mar 27
Full
Apr 2
Last Quarter
Apr 10
New

Hourly Weather History & Observations

Time (AKDT) Temp. Windchill Dew Point Humidity Pressure Visibility Wind Dir Wind Speed Gust Speed Precip Events Conditions
12:16 AM 30.2 °F 21.9 °F 23.0 °F 75% 29.91 in 10.0 mi East 9.2 mph - N/A   Mostly Cloudy
12:36 AM 30.2 °F 21.9 °F 21.2 °F 69% 29.90 in 10.0 mi ENE 9.2 mph - N/A   Partly Cloudy
12:56 AM 30.2 °F 21.9 °F 23.0 °F 75% 29.90 in 10.0 mi East 9.2 mph - N/A   Clear
1:16 AM 32.0 °F 22.1 °F 21.2 °F 64% 29.89 in 10.0 mi ENE 13.8 mph - N/A   Clear
1:36 AM 30.2 °F 21.3 °F 21.2 °F 69% 29.90 in 10.0 mi East 10.4 mph - N/A   Clear
1:56 AM 30.2 °F 21.3 °F 21.2 °F 69% 29.90 in 10.0 mi East 10.4 mph - N/A   Partly Cloudy
2:16 AM 30.2 °F 21.3 °F 21.2 °F 69% 29.90 in 10.0 mi East 10.4 mph - N/A   Partly Cloudy
2:36 AM 30.2 °F 21.3 °F 21.2 °F 69% 29.91 in 10.0 mi East 10.4 mph 16.1 mph N/A   Partly Cloudy
2:56 AM 30.2 °F 22.6 °F 21.2 °F 69% 29.91 in 10.0 mi ENE 8.1 mph - N/A   Partly Cloudy
3:16 AM 30.2 °F 21.9 °F 21.2 °F 69% 29.90 in 10.0 mi East 9.2 mph - N/A   Scattered Clouds
3:36 AM 30.2 °F 20.8 °F 19.4 °F 64% 29.89 in 10.0 mi East 11.5 mph - N/A   Clear
3:56 AM 30.2 °F 21.9 °F 19.4 °F 64% 29.88 in 10.0 mi ENE 9.2 mph - N/A   Mostly Cloudy
4:16 AM 30.2 °F 21.3 °F 19.4 °F 64% 29.87 in 10.0 mi East 10.4 mph - N/A   Overcast
4:36 AM 30.2 °F 20.2 °F 21.2 °F 69% 29.86 in 10.0 mi East 12.7 mph 16.1 mph N/A   Overcast
4:56 AM 30.2 °F 21.9 °F 21.2 °F 69% 29.86 in 10.0 mi East 9.2 mph - N/A   Overcast
5:16 AM 30.2 °F 21.3 °F 19.4 °F 64% 29.86 in 10.0 mi ENE 10.4 mph - N/A   Overcast
5:36 AM 30.2 °F 20.8 °F 19.4 °F 64% 29.85 in 10.0 mi ESE 11.5 mph - N/A   Overcast
5:56 AM 32.0 °F 21.2 °F 19.4 °F 60% 29.84 in 10.0 mi East 16.1 mph 20.7 mph N/A   Overcast
6:16 AM 32.0 °F 23.6 °F 19.4 °F 60% 29.85 in 10.0 mi East 10.4 mph 19.6 mph N/A   Overcast
6:36 AM 32.0 °F 25.6 °F 19.4 °F 60% 29.84 in 10.0 mi East 6.9 mph - N/A   Overcast
6:56 AM 30.2 °F 20.8 °F 19.4 °F 64% 29.84 in 10.0 mi ESE 11.5 mph 16.1 mph N/A   Overcast
7:16 AM 32.0 °F 20.8 °F 21.2 °F 64% 29.82 in 10.0 mi East 17.3 mph 20.7 mph N/A   Overcast
7:36 AM 32.0 °F 21.6 °F 19.4 °F 60% 29.82 in 10.0 mi ESE 15.0 mph 23.0 mph N/A   Overcast
7:56 AM 32.0 °F 21.2 °F 19.4 °F 60% 29.82 in 10.0 mi ESE 16.1 mph 21.9 mph N/A   Overcast
8:16 AM 32.0 °F 23.0 °F 19.4 °F 60% 29.82 in 10.0 mi East 11.5 mph - N/A   Mostly Cloudy
8:36 AM 32.0 °F 23.6 °F 19.4 °F 60% 29.83 in 10.0 mi East 10.4 mph - N/A   Mostly Cloudy
8:56 AM 32.0 °F 23.0 °F 19.4 °F 60% 29.81 in 10.0 mi ESE 11.5 mph 17.3 mph N/A   Mostly Cloudy
9:16 AM 32.0 °F 27.5 °F 19.4 °F 60% 29.82 in 10.0 mi NNE 4.6 mph - N/A   Mostly Cloudy
9:36 AM 33.8 °F 25.3 °F 21.2 °F 60% 29.81 in 10.0 mi East 11.5 mph 16.1 mph N/A   Mostly Cloudy
9:56 AM 33.8 °F 26.4 °F 21.2 °F 60% 29.81 in 10.0 mi ESE 9.2 mph - N/A   Mostly Cloudy
10:16 AM 33.8 °F 28.6 °F 19.4 °F 56% 29.82 in 10.0 mi North 5.8 mph - N/A   Mostly Cloudy
10:36 AM 32.0 °F 27.5 °F 19.4 °F 60% 29.81 in 10.0 mi North 4.6 mph - N/A   Mostly Cloudy
10:56 AM 33.8 °F 27.0 °F 21.2 °F 60% 29.80 in 10.0 mi NE 8.1 mph - N/A   Mostly Cloudy
11:16 AM 33.8 °F 30.8 °F 21.2 °F 60% 29.80 in 10.0 mi North 3.5 mph 19.6 mph N/A   Mostly Cloudy
11:36 AM 33.8 °F 28.6 °F 19.4 °F 56% 29.79 in 10.0 mi North 5.8 mph - N/A   Mostly Cloudy
11:56 AM 33.8 °F - 19.4 °F 56% 29.79 in 10.0 mi Calm Calm - N/A   Mostly Cloudy
12:16 PM 35.6 °F 31.7 °F 21.2 °F 56% 29.79 in 10.0 mi North 4.6 mph - N/A   Mostly Cloudy
12:36 PM 35.6 °F - 21.2 °F 56% 29.79 in 10.0 mi Calm Calm - N/A   Overcast
12:56 PM 35.6 °F 32.8 °F 21.2 °F 56% 29.79 in 10.0 mi SW 3.5 mph - N/A   Overcast
1:16 PM 35.6 °F - 21.2 °F 56% 29.78 in 10.0 mi Calm Calm - N/A   Overcast
1:36 PM 35.6 °F 32.8 °F 21.2 °F 56% 29.78 in 10.0 mi West 3.5 mph - N/A   Overcast
1:56 PM 35.6 °F - 21.2 °F 56% 29.78 in 10.0 mi Calm Calm - N/A   Overcast
2:16 PM 35.6 °F 31.7 °F 21.2 °F 56% 29.77 in 10.0 mi NW 4.6 mph - N/A   Overcast
2:36 PM 35.6 °F - 21.2 °F 56% 29.78 in 10.0 mi Calm Calm - N/A   Overcast
2:56 PM 35.6 °F 32.8 °F 21.2 °F 56% 29.77 in 10.0 mi NW 3.5 mph - N/A   Overcast
3:16 PM 35.6 °F 30.7 °F 21.2 °F 56% 29.77 in 10.0 mi East 5.8 mph - N/A   Overcast
3:36 PM 35.6 °F 28.0 °F 23.0 °F 60% 29.77 in 10.0 mi East 10.4 mph - N/A   Overcast
3:56 PM 35.6 °F 28.0 °F 23.0 °F 60% 29.77 in 10.0 mi East 10.4 mph - N/A   Overcast
4:16 PM 35.6 °F 28.6 °F 21.2 °F 56% 29.77 in 10.0 mi East 9.2 mph - N/A   Overcast
4:36 PM 35.6 °F 28.6 °F 23.0 °F 60% 29.77 in 10.0 mi East 9.2 mph - N/A   Overcast
4:56 PM 35.6 °F 28.6 °F 21.2 °F 56% 29.77 in 10.0 mi East 9.2 mph - N/A   Overcast
5:16 PM 35.6 °F 27.1 °F 21.2 °F 56% 29.77 in 10.0 mi East 12.7 mph 18.4 mph N/A   Overcast
5:36 PM 35.6 °F 26.6 °F 21.2 °F 56% 29.77 in 10.0 mi East 13.8 mph - N/A   Overcast
5:56 PM 35.6 °F 28.0 °F 21.2 °F 56% 29.77 in 10.0 mi East 10.4 mph - N/A   Overcast
6:16 PM 35.6 °F 26.6 °F 21.2 °F 56% 29.78 in 10.0 mi East 13.8 mph 18.4 mph N/A   Overcast
6:36 PM 35.6 °F 28.6 °F 21.2 °F 56% 29.78 in 10.0 mi ESE 9.2 mph - N/A   Overcast
6:56 PM 35.6 °F 29.2 °F 21.2 °F 56% 29.79 in 10.0 mi ESE 8.1 mph - N/A   Overcast
7:16 PM 35.6 °F 27.5 °F 21.2 °F 56% 29.79 in 10.0 mi East 11.5 mph 17.3 mph N/A   Overcast
7:36 PM 35.6 °F 28.6 °F 21.2 °F 56% 29.80 in 10.0 mi East 9.2 mph - N/A   Overcast
7:56 PM 35.6 °F 28.6 °F 21.2 °F 56% 29.80 in 10.0 mi East 9.2 mph - N/A   Overcast
8:16 PM 35.6 °F 27.5 °F 21.2 °F 56% 29.81 in 10.0 mi East 11.5 mph - N/A   Overcast
8:36 PM 35.6 °F 27.1 °F 21.2 °F 56% 29.81 in 10.0 mi East 12.7 mph - N/A   Overcast
8:56 PM 35.6 °F 27.5 °F 21.2 °F 56% 29.83 in 10.0 mi East 11.5 mph - N/A   Overcast
9:16 PM 35.6 °F 28.0 °F 21.2 °F 56% 29.83 in 10.0 mi East 10.4 mph - N/A   Overcast
9:36 PM 35.6 °F 29.2 °F 21.2 °F 56% 29.84 in 10.0 mi ESE 8.1 mph - N/A   Overcast
9:56 PM 35.6 °F 27.1 °F 21.2 °F 56% 29.84 in 10.0 mi East 12.7 mph - N/A   Overcast
10:16 PM 35.6 °F 27.5 °F 21.2 °F 56% 29.85 in 10.0 mi East 11.5 mph - N/A   Overcast
10:36 PM 35.6 °F 27.5 °F 21.2 °F 56% 29.85 in 10.0 mi ESE 11.5 mph - N/A   Overcast
10:56 PM 35.6 °F 28.0 °F 21.2 °F 56% 29.86 in 10.0 mi East 10.4 mph - N/A   Overcast
11:16 PM 35.6 °F 28.0 °F 21.2 °F 56% 29.86 in 10.0 mi ESE 10.4 mph - N/A   Overcast
11:36 PM 35.6 °F 27.5 °F 21.2 °F 56% 29.87 in 10.0 mi East 11.5 mph - N/A   Overcast
11:56 PM 33.8 °F 25.8 °F 21.2 °F 60% 29.88 in 9.0 mi ESE 10.4 mph - N/A   Overcast